Location: Vancouver
(49.2500°N, 123.1330°W)
Time: 04:13:00
(UTC-07:00)

BREEZE-M DEB (TANK) - Visible Passes

Search period start: 01 November 2014 00:00
Search period end: 10 November 2014 23:00
Orbit: 285 x 13629 km, 49.6° (Epoch: 31 October)

Date Brightness Start Highest point End Pass type
(mag) Time Alt. Az. Time Alt. Az. Time Alt. Az.
01 Nov 3.9 06:05:47 32° WSW 06:08:16 81° SSE 06:24:35 10° ENE visible
03 Nov 3.7 03:55:39 53° SE 03:55:39 53° SE 04:05:45 10° ENE visible
04 Nov 4.2 05:28:14 24° W 05:31:39 90° N 05:51:42 10° E visible
05 Nov 5.5 02:45:20 19° E 02:45:20 19° E 02:48:37 10° ENE visible
06 Nov 3.3 04:17:49 71° SSW 04:18:11 75° SSE 04:31:05 10° ENE visible
07 Nov 4.6 05:50:15 18° W 05:54:45 88° N 06:19:16 10° E visible
08 Nov 5.0 03:07:14 30° E 03:07:14 30° E 03:12:59 10° ENE visible
09 Nov 3.4 04:39:33 59° WSW 04:40:45 88° S 04:56:34 10° E visible
10 Nov 4.9 06:11:50 13° W 06:17:30 89° SSW 06:47:06 10° ESE visible
